Terminal Aerodrome Forecast
Issued by NWS

Home | Current Version | Previous Version | Text Only | Print | Product List | Glossary On
Versions: 1 2 3 4 5 6 7 8 9 10 11 12 13 14 15 16 17 18 19 20 21 22 23 24 25 26 27 28 29 30 31 32 33 34 35 36 37 38 39 40 41 42 43 44 45 46 47 48 49 50
000
FTUS41 KCTP 181258 AAA
TAFAOO
TAF AMD
KAOO 181258Z 1813/1912 20007KT 2SM -RA BR VCSH OVC030
      TEMPO 1813/1815 3/4SM -RA BR OVC020
     FM181700 24008KT P6SM VCTS SCT020 BKN040CB
     FM182200 26009KT P6SM BKN035
     FM190300 28007KT 6SM BR SCT040=

USA.gov is the U.S. government's official web portal to all federal, state and local government web resources and services.